Rochester, NY

5:08 AM EDT on October 14, 2019 (GMT -0400)
Greater Rochester International

Weather History for KROC - May, 2019

Change the Weather History Date:

Friday, May 17, 2019

  Actual Average Record
Temperature  
Mean Temperature 60 °F 57 °F  
Max Temperature 70 °F 68 °F 90 °F (1962)
Min Temperature 50 °F 47 °F 29 °F (1956)
Degree Days  
Heating Degree Days 5 8  
Month to date heating degree days 207 183  
Since 1 July heating degree days 6331 6486  
Cooling Degree Days 0 1  
Month to date cooling degree days 0 8  
Year to date cooling degree days 0 12  
Growing Degree Days 12 (Base 50)    
Moisture  
Dew Point 46 °F    
Average Humidity 62    
Maximum Humidity 80    
Minimum Humidity 44    
Precipitation  
Precipitation T in 0.10 in 0.79 in (1953)
Month to date precipitation 2.10 1.53  
Year to date precipitation 12.03 11.12  
Snow  
Snow 0.00 in 0.00 in T in (1973)
Month to date snowfall 0.0 0.3  
Since 1 July snowfall 97.1 99.4  
Snow Depth 0.00 in    
Sea Level Pressure  
Sea Level Pressure 29.78 in    
Wind  
Wind Speed 10 mph (WNW)    
Max Wind Speed 22 mph    
Max Gust Speed 27 mph    
Visibility 10 miles    
Events      
T = Trace of Precipitation, MM = Missing Value Source: NWS Daily Summary

Daily Weather History Graph

Daily Weather History Graph

Search for Another Location

Airport or City:

Astronomy

May. 17, 2019 Rise Set
Actual Time 5:45 AM EDT 8:29 PM EDT
Civil Twilight 5:12 AM EDT 9:02 PM EDT
Nautical Twilight 4:30 AM EDT 9:44 PM EDT
Astronomical Twilight 3:43 AM EDT 10:32 PM EDT
Moon 7:11 PM EDT (5/17) 5:20 AM EDT (5/17)
Length of Visible Light 15h 50m
Length of Day
14h 44m
Waxing Gibbous, 98% of the Moon is Illuminated
May 17
Waxing Gibbous
May 18
Full
May 26
Last Quarter
Jun 3
New
Jun 10
First Quarter

Hourly Weather History & Observations

Time (EDT) Temp. Dew Point Humidity Pressure Visibility Wind Dir Wind Speed Gust Speed Precip Events Conditions
12:54 AM 59.0 °F 43.0 °F 55% 29.69 in 10.0 mi South 3.5 mph - N/A   Mostly Cloudy
1:54 AM 62.1 °F 42.1 °F 48% 29.68 in 10.0 mi SW 10.4 mph - N/A   Overcast
2:54 AM 63.0 °F 43.0 °F 48% 29.65 in 10.0 mi SW 10.4 mph - N/A   Overcast
3:54 AM 62.1 °F 46.9 °F 58% 29.66 in 10.0 mi WSW 8.1 mph - 0.00 in   Overcast
4:54 AM 60.1 °F 50.0 °F 69% 29.68 in 10.0 mi SW 4.6 mph - 0.00 in   Overcast
5:54 AM 57.9 °F 51.1 °F 78% 29.69 in 10.0 mi West 4.6 mph - N/A   Mostly Cloudy
6:54 AM 61.0 °F 51.1 °F 70% 29.69 in 10.0 mi WSW 6.9 mph - N/A   Overcast
7:54 AM 64.0 °F 53.1 °F 67% 29.69 in 10.0 mi WSW 5.8 mph - N/A   Mostly Cloudy
8:54 AM 66.9 °F 53.1 °F 61% 29.71 in 10.0 mi West 10.4 mph - N/A   Mostly Cloudy
9:54 AM 68.0 °F 54.0 °F 61% 29.72 in 10.0 mi WNW 11.5 mph - N/A   Mostly Cloudy
10:54 AM 68.0 °F 54.0 °F 61% 29.73 in 10.0 mi North 9.2 mph - N/A   Mostly Cloudy
11:54 AM 62.1 °F 50.0 °F 65% 29.76 in 10.0 mi NW 12.7 mph - N/A   Overcast
12:54 PM 61.0 °F 48.0 °F 62% 29.77 in 10.0 mi NNW 10.4 mph - N/A   Overcast
1:54 PM 60.1 °F 48.0 °F 64% 29.79 in 10.0 mi NW 12.7 mph - N/A   Mostly Cloudy
2:54 PM 64.0 °F 48.9 °F 58% 29.80 in 10.0 mi NW 10.4 mph 19.6 mph N/A   Scattered Clouds
3:54 PM 64.0 °F 46.0 °F 52% 29.82 in 10.0 mi NNW 15.0 mph 24.2 mph N/A   Scattered Clouds
4:54 PM 64.0 °F 43.0 °F 46% 29.83 in 10.0 mi WNW 13.8 mph 21.9 mph N/A   Partly Cloudy
5:54 PM 64.0 °F 43.0 °F 46% 29.85 in 10.0 mi NW 12.7 mph - N/A   Scattered Clouds
6:54 PM 63.0 °F 42.1 °F 46% 29.87 in 10.0 mi NNW 15.0 mph 20.7 mph N/A   Mostly Cloudy
7:54 PM 60.1 °F 41.0 °F 49% 29.89 in 10.0 mi NNW 9.2 mph - N/A   Mostly Cloudy
8:54 PM 57.0 °F 39.9 °F 53% 29.91 in 10.0 mi NW 8.1 mph - N/A   Mostly Cloudy
9:54 PM 54.0 °F 41.0 °F 62% 29.92 in 10.0 mi WNW 5.8 mph - N/A   Mostly Cloudy
10:54 PM 53.1 °F 39.9 °F 61% 29.93 in 10.0 mi NNW 6.9 mph - N/A   Mostly Cloudy
11:54 PM 52.0 °F 39.9 °F 63% 29.94 in 10.0 mi NNW 10.4 mph - N/A   Mostly Cloudy